Waarnemingen

Advertentie
Mijn weer
Lerwick, Groot Brittannië (3005): temperatuur & dauwpunt: 11.02.2019 12:00:00 - 17.02.2019 12:00:00 (GMT)Lerwick, Groot Brittannië (3005): temperatuur -20cm & temperatuur -100cm: 11.02.2019 12:00:00 - 17.02.2019 12:00:00 (GMT)Lerwick, Groot Brittannië (3005): windsnelheid & windstoten: 11.02.2019 12:00:00 - 17.02.2019 12:00:00 (GMT)Lerwick, Groot Brittannië (3005): windrichting: 11.02.2019 12:00:00 - 17.02.2019 12:00:00 (GMT)Lerwick, Groot Brittannië (3005): luchtdruk: 11.02.2019 12:00:00 - 17.02.2019 12:00:00 (GMT)Lerwick, Groot Brittannië (3005): zicht: 11.02.2019 12:00:00 - 17.02.2019 12:00:00 (GMT)Lerwick, Groot Brittannië (3005): Zonneschijnduur: 11.02.2019 12:00:00 - 17.02.2019 12:00:00 (GMT)Lerwick, Groot Brittannië (3005): neerslag: 11.02.2019 12:00:00 - 17.02.2019 12:00:00 (GMT)
Datum & Tijd tt [°C] td [°C] tt -20cm [°C] tt -100cm [°C] ff [km/u] ff [kn] fx [km/u] fx [kn] dd ppp [hPa] vv [km] sd [min] rr [mm]
17.02.2019 12:00:00 8,1 6,9 - - 34 18 61 33 Z 1001,5 7 42 -
17.02.2019 11:00:00 8,5 7,0 - - 39 21 55 30 ZZW 1001,8 8 24 -
17.02.2019 10:00:00 8,3 7,5 - - 34 18 - - Z 1002,2 9 0 0,0
17.02.2019 09:00:00 7,5 7,1 5,4 5,7 24 13 - - Z 1002,8 5 0 0,0
17.02.2019 08:00:00 7,4 6,9 - - 29 16 - - Z 1003,1 6 0 0,0
17.02.2019 07:00:00 7,1 6,6 - - 26 14 - - Z 1003,3 6 0 0,0
17.02.2019 06:00:00 6,9 6,2 - - 28 15 - - Z 1003,9 10 0 0,0
17.02.2019 05:00:00 6,9 6,2 - - 29 16 - - Z 1004,7 10 0 0,0
17.02.2019 04:00:00 6,9 6,4 - - 29 16 - - Z 1005,5 8 0 0,0
17.02.2019 03:00:00 6,8 6,3 - - 28 15 - - Z 1006,2 15 0 0,0
17.02.2019 02:00:00 6,9 6,7 - - 16 9 - - ZZO 1007,0 5 0 0,0
17.02.2019 01:00:00 7,0 6,8 - - 13 7 - - Z 1008,0 5 0 0,0
17.02.2019 00:00:00 6,9 6,7 - - 15 8 - - Z 1008,9 6 - 0,0
16.02.2019 23:00:00 6,8 6,6 - - 21 11 - - ZZO 1009,6 8 0 0,0
16.02.2019 22:00:00 6,9 6,7 - - 24 13 - - ZO 1009,4 4,0 0 0,0
16.02.2019 21:00:00 6,7 6,4 - - 24 13 - - ZO 1010,2 5 0 0,0
16.02.2019 20:00:00 6,2 5,9 - - 28 15 - - ZO 1010,7 8 0 0,4
16.02.2019 19:00:00 5,9 5,3 - - 29 16 - - ZO 1011,1 5 0 0,2
16.02.2019 18:00:00 5,9 4,7 - - 21 11 - - OZO 1011,2 16 0 0,0
16.02.2019 17:00:00 5,7 4,8 - - 21 11 - - OZO 1011,3 22 0 0,0
16.02.2019 16:00:00 5,6 4,8 - - 21 11 - - OZO 1011,6 17 0 0,0
16.02.2019 15:00:00 5,9 4,0 - - 22 12 - - OZO 1012,2 16 0 0,0
16.02.2019 14:00:00 6,0 3,7 - - 18 10 - - OZO 1012,5 19 12 0,0
16.02.2019 13:00:00 6,2 3,9 - - 26 14 - - O 1011,5 35 42 0,0
16.02.2019 12:00:00 6,2 4,4 - - 16 9 - - O 1011,6 17 0 0,0
16.02.2019 11:00:00 5,8 4,4 - - 9 5 - - O 1011,3 16 36 0,0
16.02.2019 10:00:00 5,7 4,1 - - 5 3 - - O 1011,2 16 48 0,0
16.02.2019 09:00:00 4,8 3,8 5,4 5,7 8 4 - - ONO 1009,9 21 12 0,0
16.02.2019 08:00:00 4,1 2,9 - - 13 7 - - NO 1009,0 35 0 0,0
16.02.2019 07:00:00 4,5 3,4 - - 13 7 - - NO 1008,2 45 0 0,0
16.02.2019 06:00:00 4,5 3,6 - - 11 6 - - NO 1007,6 45 0 0,4
16.02.2019 05:00:00 4,7 3,9 - - 16 9 - - NO 1006,9 9 0 0,8
16.02.2019 04:00:00 5,0 3,7 - - 22 12 - - NNO 1006,3 11 0 1,4
16.02.2019 03:00:00 5,3 4,4 - - 24 13 - - NNO 1005,6 15 0 0,4
16.02.2019 02:00:00 5,4 4,4 - - 21 11 - - NNO 1006,5 12 0 1,6
16.02.2019 01:00:00 6,4 6,0 - - 11 6 - - NNO 1006,7 6 0 2,8
16.02.2019 00:00:00 6,7 6,4 - - 9 5 - - N 1006,6 6 - 1,6
15.02.2019 23:00:00 7,9 7,5 - - 29 16 50 27 W 1006,8 5 0 1,0
15.02.2019 22:00:00 8,3 7,8 - - 41 22 55 30 ZW 1007,0 5 0 1,2
15.02.2019 21:00:00 8,2 7,3 - - 46 25 65 35 ZW 1006,9 4,3 0 0,8
15.02.2019 20:00:00 8,6 6,7 - - 50 27 72 39 ZW 1006,8 5 0 0,0
15.02.2019 19:00:00 10,3 4,4 - - 48 26 59 32 ZW 1006,5 25 0 0,0
15.02.2019 18:00:00 9,3 2,9 - - 35 19 63 34 ZW 1006,6 30 0 0,0
15.02.2019 17:00:00 8,4 2,8 - - 48 26 70 38 ZW 1006,8 18 0 0,0
15.02.2019 16:00:00 9,0 1,0 - - 50 27 65 35 ZW 1006,7 25 0 0,0
15.02.2019 15:00:00 8,4 2,5 - - 39 21 48 26 Z 1007,5 18 42 0,0
15.02.2019 14:00:00 9,5 1,3 - - 35 19 50 27 Z 1008,6 30 48 0,0
15.02.2019 13:00:00 9,5 1,7 - - 34 18 46 25 Z 1009,7 26 60 0,0
15.02.2019 12:00:00 10,0 2,8 - - 29 16 55 30 Z 1010,6 20 54 0,0
15.02.2019 11:00:00 9,5 1,9 - - 31 17 54 29 Z 1011,3 30 54 0,0
15.02.2019 10:00:00 9,8 0,8 - - 37 20 55 30 ZZW 1012,2 30 60 0,0
15.02.2019 09:00:00 8,2 2,4 5,0 5,5 24 13 46 25 Z 1013,0 30 18 0,0
15.02.2019 08:00:00 8,1 2,5 - - 28 15 46 25 ZW 1013,2 23 0 0,0
15.02.2019 07:00:00 7,5 4,4 - - 28 15 - - ZW 1013,8 14 0 0,0
15.02.2019 06:00:00 7,4 3,8 - - 21 11 - - ZZW 1014,6 17 0 0,0
15.02.2019 05:00:00 7,8 3,9 - - 16 9 - - ZZW 1015,0 17 0 0,0
15.02.2019 04:00:00 8,2 4,2 - - 22 12 - - ZW 1015,7 21 0 0,0
15.02.2019 03:00:00 7,8 5,2 - - 22 12 - - Z 1016,3 16 0 0,0
15.02.2019 02:00:00 7,1 6,5 - - 26 14 - - Z 1017,0 7 0 0,0
15.02.2019 01:00:00 6,8 6,4 - - 22 12 - - ZZO 1017,7 6 0 0,0
15.02.2019 00:00:00 6,9 6,4 - - 16 9 - - Z 1018,1 8 - 0,0
14.02.2019 23:00:00 7,9 6,5 - - 28 15 - - Z 1018,5 11 0 0,0
14.02.2019 22:00:00 9,1 6,5 - - 26 14 - - ZW 1018,8 35 0 0,0
14.02.2019 21:00:00 7,9 6,7 - - 21 11 - - Z 1019,3 14 0 0,0
14.02.2019 20:00:00 7,5 6,6 - - 21 11 - - Z 1019,2 10 0 0,0
14.02.2019 19:00:00 7,7 6,8 - - 22 12 - - Z 1019,3 12 0 0,0
14.02.2019 18:00:00 8,3 7,5 - - 21 11 - - ZZW 1019,5 15 0 0,0
14.02.2019 17:00:00 7,3 6,9 - - 22 12 - - Z 1019,6 7 0 0,0
14.02.2019 16:00:00 7,3 6,7 - - 22 12 - - Z 1020,1 5 0 0,0
14.02.2019 15:00:00 7,8 5,9 - - 26 14 - - ZW 1020,0 15 0 0,0
14.02.2019 14:00:00 8,1 6,4 - - 34 18 - - ZW 1020,2 10 0 0,0
14.02.2019 13:00:00 8,0 6,5 - - 35 19 46 25 ZW 1020,0 9 0 0,0
14.02.2019 12:00:00 8,2 6,4 - - 34 18 57 31 WZW 1019,8 10 0 0,0
14.02.2019 11:00:00 8,3 6,3 - - 37 20 74 40 WZW 1019,3 12 0 0,0
14.02.2019 10:00:00 8,3 6,2 - - 59 32 80 43 WZW 1017,4 12 0 0,0
14.02.2019 09:00:00 8,4 6,0 4,7 5,5 67 36 87 47 W 1016,5 15 0 0,0
14.02.2019 08:00:00 8,6 6,0 - - 72 39 96 52 WZW 1015,5 14 0 0,0
14.02.2019 07:00:00 8,4 5,7 - - 59 32 85 46 WZW 1014,6 14 0 0,0
14.02.2019 06:00:00 8,0 6,8 - - 55 30 87 47 ZW 1014,4 12 0 0,0
14.02.2019 05:00:00 9,4 7,5 - - 61 33 80 43 WZW 1013,3 13 0 0,0
14.02.2019 04:00:00 8,2 6,4 - - 59 32 83 45 ZW 1013,0 10 0 0,0
14.02.2019 03:00:00 8,9 6,0 - - 61 33 81 44 ZW 1012,5 16 0 0,0
14.02.2019 02:00:00 8,8 6,0 - - 57 31 78 42 ZW 1012,4 15 0 0,0
14.02.2019 01:00:00 9,0 6,4 - - 59 32 72 39 ZW 1012,7 13 0 0,0
14.02.2019 00:00:00 8,8 6,2 - - 52 28 70 38 ZZW 1012,7 15 - 0,0
13.02.2019 23:00:00 8,4 6,1 - - 41 22 72 39 ZZW 1013,0 13 0 0,0
13.02.2019 22:00:00 8,9 6,2 - - 50 27 68 37 ZZW 1013,5 15 0 0,0
13.02.2019 21:00:00 9,0 6,5 - - 50 27 68 37 ZW 1013,2 14 0 0,0
13.02.2019 20:00:00 9,0 6,2 - - 42 23 55 30 ZZW 1013,1 16 0 0,0
13.02.2019 19:00:00 9,1 6,5 - - 42 23 55 30 ZW 1013,2 21 0 0,0
13.02.2019 18:00:00 8,6 6,7 - - 39 21 57 31 ZW 1013,8 15 0 0,0
13.02.2019 17:00:00 8,9 6,6 - - 39 21 61 33 ZW 1014,0 16 0 0,0
13.02.2019 16:00:00 9,4 6,9 - - 42 23 63 34 ZW 1014,0 25 0 0,0
13.02.2019 15:00:00 9,1 6,8 - - 31 17 46 25 ZZW 1014,5 24 0 0,0
13.02.2019 14:00:00 8,6 6,9 - - 29 16 - - Z 1014,6 16 0 0,0
13.02.2019 13:00:00 8,3 6,9 - - 26 14 - - Z 1014,8 13 0 0,0
13.02.2019 12:00:00 8,3 6,4 - - 31 17 48 26 ZZW 1015,0 14 0 0,2
13.02.2019 11:00:00 8,3 6,4 - - 31 17 48 26 ZZW 1015,0 14 0 0,0
13.02.2019 10:00:00 6,7 5,6 - - 31 17 50 27 Z 1015,7 8 0 0,4
13.02.2019 09:00:00 6,9 4,8 4,2 5,5 29 16 48 26 ZZW 1016,2 10 0 0,0
13.02.2019 08:00:00 6,3 5,1 - - 15 8 - - Z 1016,0 6 0 0,0
13.02.2019 07:00:00 6,3 4,9 - - 22 12 - - Z 1016,7 8 0 0,0
13.02.2019 06:00:00 6,8 6,0 - - 34 18 48 26 WZW 1017,2 4,9 0 0,0
13.02.2019 05:00:00 6,6 5,4 - - 39 21 50 27 WZW 1017,7 4,8 0 0,0
13.02.2019 04:00:00 6,5 5,1 - - 31 17 52 28 WZW 1017,5 8 0 0,0
13.02.2019 03:00:00 6,8 4,6 - - 37 20 50 27 WZW 1017,0 8 0 0,0
13.02.2019 02:00:00 7,1 4,3 - - 37 20 57 31 W 1016,0 9 0 0,0
13.02.2019 01:00:00 7,3 3,2 - - 42 23 72 39 W 1015,5 8 0 0,0
13.02.2019 00:00:00 7,6 3,0 - - 52 28 78 42 W 1014,6 8 - 0,0
12.02.2019 23:00:00 7,7 3,3 - - 57 31 83 45 W 1013,7 8 0 0,0
12.02.2019 22:00:00 7,7 3,3 - - 63 34 89 48 WZW 1012,8 9 0 0,0
12.02.2019 21:00:00 8,0 4,5 - - 65 35 91 49 WZW 1011,5 8 0 0,0
12.02.2019 20:00:00 7,9 4,3 - - 68 37 102 55 WZW 1010,5 8 0 0,0
12.02.2019 19:00:00 7,9 5,2 - - 67 36 106 57 WZW 1009,4 8 0 1,4
12.02.2019 18:00:00 8,8 6,5 - - 65 35 93 50 ZW 1009,1 8 0 0,0
12.02.2019 17:00:00 8,7 7,3 - - 61 33 85 46 ZW 1008,5 8 0 0,0
12.02.2019 16:00:00 8,9 7,7 - - 63 34 89 48 WZW 1008,5 8 0 0,0
12.02.2019 15:00:00 9,0 7,9 - - 67 36 87 47 ZW 1007,4 10 0 0,2
12.02.2019 14:00:00 8,1 7,3 - - 67 36 89 48 ZW 1007,4 5 0 0,0
12.02.2019 13:00:00 8,3 6,4 - - 59 32 78 42 ZW 1007,8 9 0 0,0
12.02.2019 12:00:00 8,3 5,9 - - 59 32 74 40 ZZW 1008,7 14 0 0,0
12.02.2019 11:00:00 8,1 5,9 - - 55 30 70 38 ZZW 1009,6 17 0 0,4
12.02.2019 10:00:00 7,4 6,1 - - 52 28 80 43 ZW 1010,3 7 0 0,0
12.02.2019 09:00:00 7,0 5,6 3,7 5,5 54 29 74 40 ZZW 1011,3 15 0 0,2
12.02.2019 08:00:00 6,6 6,0 - - 52 28 70 38 ZZW 1011,9 4,7 0 1,0
12.02.2019 07:00:00 6,0 5,3 - - 39 21 50 27 ZZW 1012,9 6 0 1,8
12.02.2019 06:00:00 5,7 5,0 - - 35 19 48 26 ZZW 1013,9 6 0 1,2
12.02.2019 05:00:00 5,8 4,7 - - 31 17 50 27 ZZW 1015,0 12 0 0,0
12.02.2019 04:00:00 5,6 4,7 - - 39 21 52 28 ZZW 1015,5 15 0 0,0
12.02.2019 03:00:00 4,4 3,7 - - 35 19 55 30 ZZW 1016,5 11 0 0,6
12.02.2019 02:00:00 3,8 2,5 - - 44 24 61 33 ZZW 1017,6 9 0 0,4
12.02.2019 01:00:00 3,5 1,8 - - 39 21 52 28 ZZW 1018,6 9 0 0,2
12.02.2019 00:00:00 3,0 1,0 - - 39 21 50 27 ZZW 1019,2 9 - 0,2
11.02.2019 23:00:00 2,5 0,2 - - 31 17 48 26 ZZW 1020,2 10 0 0,2
11.02.2019 22:00:00 3,7 -0,1 - - 28 15 - - ZZW 1020,9 40 0 0,0
11.02.2019 21:00:00 3,1 -1,2 - - 22 12 - - ZZW 1021,3 50 0 0,0
11.02.2019 20:00:00 2,5 -1,6 - - 16 9 - - Z 1021,8 50 0 0,0
11.02.2019 19:00:00 2,4 -2,4 - - 13 7 - - ZW 1022,3 50 0 0,0
11.02.2019 18:00:00 2,1 -2,2 - - 15 8 - - ZW 1022,1 50 0 0,0
11.02.2019 17:00:00 2,1 -2,4 - - 13 7 - - WZW 1021,8 50 0 0,0
11.02.2019 16:00:00 2,9 -3,3 - - 11 6 - - WNW 1022,0 50 0 0,0
11.02.2019 15:00:00 3,2 -3,7 - - 13 7 - - WNW 1021,5 50 0 0,0
11.02.2019 14:00:00 3,2 -3,2 - - 16 9 - - WNW 1021,4 50 0 0,0
11.02.2019 13:00:00 2,8 -2,5 - - 11 6 - - NNW 1021,0 50 0 0,0
11.02.2019 12:00:00 2,6 -3,0 - - 13 7 - - NNW 1020,1 45 6 0,0

tt = temperatuur
td = dauwpunt
tt -20cm = temperatuur -20cm
tt -100cm = temperatuur -100cm
ff = windsnelheid
fx = windstoten
dd = windrichting
ppp = luchtdruk
vv = zicht
sd = Zonneschijnduur
rr = neerslag

Weerstations in de omgeving